FENGYUN 1C DEB, 32447

Orbit data source: Space-Track

FENGYUN 1C DEB, 32447 is space debris in SSO originally from a launch on Mon, 10 May 1999 UTC launched from the Taiyaun Space Center, China (TSC). Fengyun 1C debris stems from the Chinese weather satellite Fengyun-1C, which was intentionally destroyed by a Chinese anti-satellite missile in 2007. This event dramatically increased the amount of space debris, with thousands of trackable fragments posing hazards to satellites and human spaceflight. The Fengyun 1C debris cloud has become a focal point in discussions about space sustainability and the need for international regulations to prevent the creation of new debris.

Loading next visibility...
Identifier
32447, 1999-025DBK
Orbit
SSO
Country
Flag of CNCN / PRC
Related business
Manufacturer
Unknown
Mission
Spacecraft
Bus & Motor
Unknown
Mass
Unknown
Launch date (UTC)
1999-05-10 (27 years ago)
Launch vehicle
Unknown
Launch site
Taiyaun Space Center, China (TSC)
Object type
Payload
Rocket body
Debris
Shape & HBR
Unknown shape, 0.1 m
Radar Cross Section
Small (<0.1 m²)

Expand to show TLE details & history
Last TLE update: 3 days ago

TLE from 3 days ago
0 FENGYUN 1C DEB
1 32447U 99025DBK 26252.26217200  .00000263  00000-0  21693-3 0  9997
2 32447  98.9211 265.1081 0079556  17.2200 343.1633 13.96143850716534
Epoch: 2026-09-09T06:17Z
TLE epoch observation values (Epoch: 2026-09-09T06:17:31.660Z)
Latitude
-0.00012°
Longitude
-177.59056°
Altitude
854.608 km
Speed
7.453 km/s
True Right ascension
17h 40m 25s
True Declination
0° 00' 00"
Sunlit
Object was in daylight at epoch
Visualization orbit readout
Latitude
Unknown
Longitude
Unknown
Altitude
Unknown
Speed
Unknown
Apparent Right ascension
Unknown
Apparent Declination
Unknown
Sunlit
N/A
Visualization observer readout
Local Sidereal Time
14:03:46
Azimuth
Unknown
Elevation
Unknown
Doppler factor
Unknown
Orbital elements
Apogee altitude
962.316 km
Perigee altitude
846.443 km
Semi-major axis
7,282.516 km
Eccentricity
0.00796
Inclination
98.9211°
RAAN
265.1081°
Arg. of periapsis
17.22°
True anomaly
342.89671°
Mean anomaly
343.1633°
Eccentric anomaly
343.03026°
Mean motion
3.49238 °/min
Orbital period
103.08 mins
BSTAR
0.00021693
Loading maneuver chart data...
Computing Atmospheric mass density...
Loading historical data...
Loading historical data...
Loading historical data...
Loading historical data...
Loading historical data...
Loading historical data...
Loading historical data...

Documentation

Showing up to 5 results
|